Regional Weather Roundup
Issued by NWS Albany, NY

Home | Current Version | Previous Version | Text Only | Print | Product List | Glossary On
Versions: 1 2 3 4 5 6 7 8 9 10 11 12 13 14 15 16 17 18 19 20 21 22 23 24 25 26 27 28 29 30 31 32 33 34 35 36 37 38 39 40 41 42 43 44 45 46 47 48 49 50
000
ASUS41 KALY 302310
RWRALY

NEW YORK STATE HOURLY WEATHER ROUNDUP
NATIONAL WEATHER SERVICE ALBANY NY
700 PM EDT SAT AUG 30 2014

NOTE: "FAIR" INDICATES FEW OR NO CLOUDS BELOW 12,000 FEET WITH NO
SIGNIFICANT WEATHER AND/OR NO OBSTRUCTIONS TO VISIBILITY.

NYZ032-033-038>043-046>054-057>066-NYZ062>081-310000-
EAST


CITY           SKY/WX    TMP DP  RH WIND       PRES   REMARKS
ALBANY         PTCLDY    76  59  55 S10G22    30.09F
GLENS FALLS    PTCLDY    74  60  61 S8        30.07F
POUGHKEEPSIE   CLOUDY    75  62  64 VRB5      30.13F
NEWBURGH       CLOUDY    75  63  64 W6        30.16F
MONTGOMERY     CLOUDY    74  61  63 SW7       30.14F
WHITE PLAINS   MOCLDY    72  63  73 S7        30.17F
ISLIP          CLOUDY    73  62  68 S10       30.17F
NEW YORK CITY  MOCLDY    75  65  70 S13       30.16S
CENTRAL PARK   CLOUDY    74  63  68 VRB3      30.19S
$$

NYZ005>009-017-018-044>046-055-056-310000-
CENTRAL


CITY           SKY/WX    TMP DP  RH WIND       PRES   REMARKS
FULTON         MOCLDY    78  66  66 S9        29.99S
SYRACUSE       MOCLDY    76  65  68 S12       30.00F
ROME           PTCLDY    74  64  71 SE9       30.05F
ELMIRA         CLOUDY    74  66  76 S13       30.06F
BINGHAMTON     CLOUDY    69  63  81 S13G21    30.12F
MONTICELLO     CLOUDY    68  63  83 S5        30.19F
$$

NYZ026>034-041>043-310000-
NORTH


CITY           SKY/WX    TMP DP  RH WIND       PRES   REMARKS
WATERTOWN      MOCLDY    78  61  55 S9        29.96S
FORT DRUM      NOT AVBL
MASSENA        PTCLDY    75  65  70 SW6       29.95F
SARANAC LAKE   CLEAR     73  58  59 S15       30.03F
PLATTSBURGH    CLEAR     74  61  63 S16G23    29.98F
$$

NYZ001>004-010>016-019>021-310000-
WEST


CITY           SKY/WX    TMP DP  RH WIND       PRES   REMARKS
NIAGARA FALLS  MOCLDY    83  67  58 SW12      29.92F
BUFFALO        MOCLDY    78  66  66 S7        29.94F
DUNKIRK        CLOUDY    83  68  60 S7        29.95F
JAMESTOWN      MOCLDY    79  66  65 S10G18    30.02F
WELLSVILLE     PTCLDY    75  66  73 S10G21    30.08F
ROCHESTER      MOCLDY    82  67  60 NW6       29.95R
PENN YAN       PTCLDY    77  66  68 S10       30.02F
$$

             KEY
       WCI = WIND CHILL INDEX
       VSB = VISIBILITY
       HX  = HEAT INDEX
$$


USA.gov is the U.S. government's official web portal to all federal, state and local government web resources and services.